Regional Weather Roundup
Issued by NWS New Orleans/Baton Rouge, LA

Home | Current Version | Previous Version | Graphics & Text | Print | Product List | Glossary On
Versions: 1 2 3 4 5 6 7 8 9 10 11 12 13 14 15 16 17 18 19 20 21 22 23 24 25 26 27 28 29 30 31 32 33 34 35 36 37 38 39 40 41 42 43 44 45 46 47 48 49 50
584
ASUS44 KLIX 280710
RWRLIX
NEW ORLEANS REGIONAL WEATHER ROUNDUP
NATIONAL WEATHER SERVICE NEW ORLEANS LA
100 AM CST WED JAN 28 2015

NOTE: "FAIR" INDICATES FEW OR NO CLOUDS BELOW 12,000 FEET WITH NO
      SIGNIFICANT WEATHER AND/OR OBSTRUCTIONS TO VISIBILITY.
      SKY/WX - SKY CONDITION AND SIGNIFICANT WEATHER.
      TMP - AIR TEMPERATURE.     DP    - DEWPOINT TEMPERATURE.
      RH  - RELATIVE HUMIDITY.   PRES  - PRESSURE.
      HI  - HEAT INDEX.          WCI   - WIND CHILL INDEX.

*  THESE STATIONS ARE NOT NWS OR FAA STATIONS AND ARE NOT UNDER
   NWS QUALITY CONTROL.

LAZ038-040-048-061>063-065>067-069-280800-
SOUTHEAST LOUISIANA

CITY           SKY/WX    TMP DP  RH WIND       PRES   REMARKS
N.O. AUDUBON     N/A     57  38  49 MISG        N/A
N.O. INTL ARPT CLEAR     51  41  68 CALM      30.18S
N.O. LAKEFRONT CLEAR     56  43  61 NE8       30.19R
N.O. DOWNTOWN*   N/A     57  34  41 N5        30.18S
SLIDELL        CLEAR     46  37  71 N5        30.18R
BATON ROUGE    CLEAR     46  38  73 CALM      30.18R
BOOTHVILLE     CLEAR     55  49  80 NW6       30.18R
BELLE CHASSE   CLEAR     48  38  68 NE7       30.18R
BOGALUSA*        N/A     42  37  82 CALM      30.20S
GALLIANO*      SUNNY     55  43  63 MISG      30.18S
NEW ROADS*       N/A     45  40  84 CALM      30.18S
GONZALES*        N/A     51  38  62 CALM      30.18S
HAMMOND*       CLEAR     43  37  81 CALM      30.20S
HOUMA*         CLEAR     46  45  94 CALM      30.17F
PORT FOURCHON* SUNNY     55  50  82 N7        30.20S

$$

MSZ070-080>082-280800-
SOUTHERN MISSISSIPPI

CITY           SKY/WX    TMP DP  RH WIND       PRES   REMARKS
MCCOMB         CLEAR     51  34  52 N6        30.19R
GULFPORT       CLEAR     50  34  54 N6        30.17S
BILOXI         NOT AVBL
PASCAGOULA     CLEAR     45  37  73 CALM      30.17S

$$

COASTAL OBSERVATIONS
LAKE AND NEARSHORE STATIONS

STATION/POSITION TIME  TEMP    WIND        PRES    WAVE
                       AIR SEA DIR/SP/G            HT/PER
                 (UTC) (F)     (DEG/KT/KT) (MB)    (FT/S)
PASCAGOULA       0700   50      10/  7/  9 1021.0
WAVELAND YACHT   0700   54     360/  8/ 10 1021.0
GRAND ISLE       0700   58 62  340/  8/ 11 1022.0
SOUTHWEST PASS   0700   60 47  310/ 12/ 13 1021.6
NEW CANAL        0700   55 54   50/  5/  6 1022.3
SHELL BEACH      0700   56 55   20/ 11/ 12 1021.7

OFFSHORE STATIONS

STATION/POSITION TIME  TEMP    WIND        PRES    WAVE
                       AIR SEA DIR/SP/G            HT/PER
                 (UTC) (F)     (DEG/KT/KT) (MB)    (FT/S)
64 S DAUPHIN ISL 0552   65 66  360/ 16/ 19 1021.1    3/ 6

$$




USA.gov is the U.S. government's official web portal to all federal, state and local government web resources and services.